FW2315 Weather Reports


time (UTC)temp
F
wind
direction
speed
knots
gust
knots
rain 1hr
in
rain 24hr
in
rain mn
in
humidity
%
barometer
mb
20260507203045 57 5 1.7 5.2 0.00 0.37 0.34 76 1015.5
20260507201544 57 16 2.6 7.0 0.00 0.37 0.34 76 1015.2
20260507200049 57 345 3.5 5.2 0.00 0.37 0.34 77 1014.9
20260507194543 57 355 2.6 5.2 0.00 0.55 0.34 76 1014.7
20260507193043 57 328 2.6 4.3 0.00 0.55 0.34 77 1014.6
20260507191549 58 360 0.9 3.5 0.00 0.55 0.34 76 1014.4
20260507190042 59 304 0.0 3.5 0.00 0.55 0.34 75 1014.2
20260507184541 60 304 1.7 4.3 0.00 0.56 0.34 74 1013.9
20260507183040 61 360 2.6 4.3 0.00 0.56 0.34 72 1013.5
20260507181541 62 47 0.9 2.6 0.00 0.56 0.34 71 1013.4
20260507180045 63 61 0.9 3.5 0.00 0.56 0.34 69 1013.1
20260507174540 64 106 3.5 7.8 0.00 0.57 0.34 66 1013.1
20260507173038 64 142 1.7 5.2 0.00 0.57 0.34 67 1012.9
20260507171537 65 151 0.9 7.0 0.00 0.57 0.34 65 1012.8
20260507170037 66 149 3.5 8.7 0.00 0.57 0.34 63 1012.8
20260507164536 69 146 2.6 7.8 0.00 0.60 0.34 54 1012.6
20260507163035 71 96 2.6 7.0 0.00 0.60 0.34 54 1012.7
20260507161532 70 68 2.6 7.0 0.00 0.60 0.34 56 1012.7
20260507160036 69 134 1.7 3.5 0.00 0.60 0.34 57 1012.7
20260507154531 67 138 1.7 4.3 0.00 0.92 0.34 61 1012.7
20260507153034 70 127 3.5 7.0 0.00 0.92 0.34 57 1012.7
20260507151530 66 215 2.6 7.8 0.00 0.92 0.34 62 1012.8
20260507150030 66 124 1.7 7.0 0.00 0.92 0.34 64 1013.0
20260507144531 66 134 6.1 10.4 0.00 1.13 0.34 62 1013.1
20260507143032 68 150 6.1 8.7 0.00 1.13 0.34 51 1013.1
20260507141526 70 129 4.3 11.3 0.00 1.13 0.34 46 1012.9
20260507140028 69 149 6.1 9.6 0.00 1.13 0.34 49 1013.0
20260507134526 68 86 4.3 8.7 0.00 1.15 0.34 54 1013.0
20260507133022 67 169 4.3 8.7 0.00 1.15 0.34 61 1013.3
20260507131525 65 131 3.5 7.0 0.00 1.15 0.34 65 1013.5
20260507130019 69 137 2.6 11.3 0.00 1.15 0.34 58 1013.5
20260507124518 68 195 5.2 8.7 0.00 1.17 0.34 51 1013.5
20260507123021 66 97 0.0 3.5 0.00 1.17 0.34 61 1013.7
20260507121510 65 148 3.5 7.0 0.00 1.17 0.34 63 1013.9
20260507120006 64 238 2.6 6.1 0.00 1.17 0.34 66 1014.0
20260507114508 64 233 1.7 6.1 0.00 1.17 0.34 64 1014.1
20260507113005 62 222 2.6 8.7 0.00 1.17 0.34 62 1014.3
20260507111503 62 211 4.3 7.0 0.00 1.17 0.34 62 1014.4
20260507110008 63 138 3.5 6.1 0.00 1.22 0.34 63 1014.5
20260507104600 62 85 4.3 7.0 0.00 1.22 0.34 70 1014.6
20260507104501 62 82 3.5 7.0 0.00 1.22 0.34 70 1014.6
20260507103100 62 238 2.6 6.1 0.00 1.22 0.34 71 1014.8
20260507101606 61 236 2.6 6.1 0.00 1.22 0.34 71 1014.8
20260507100055 61 119 3.5 7.8 0.00 1.22 0.34 72 1014.9
20260507094559 61 199 1.7 5.2 0.00 1.39 0.34 72 1014.9
20260507093049 60 184 2.6 4.3 0.00 1.39 0.34 72 1014.9
20260507091600 59 217 1.7 4.3 0.00 1.39 0.34 73 1015.2
20260507090108 60 253 1.7 7.0 0.00 1.39 0.34 72 1015.2
20260507084545 59 290 0.9 4.3 0.00 1.42 0.34 76 1015.2
20260507083042 58 252 2.6 7.8 0.00 1.42 0.34 78 1015.3
20260507081550 56 288 2.6 7.0 0.00 1.42 0.34 79 1015.2
20260507080035 56 302 4.3 7.8 0.00 1.42 0.34 81 1015.2
20260507074538 55 248 1.7 7.8 0.00 1.48 0.34 84 1015.3
20260507073036 54 281 1.7 7.0 0.00 1.48 0.34 83 1015.4
20260507071528 53 360 0.9 3.5 0.00 1.48 0.34 84 1015.4
20260507070024 51 13 0.9 4.3 0.00 1.48 0.34 87 1015.4
20260507064521 51 288 1.7 4.3 0.00 1.53 0.34 90 1015.3
20260507063017 50 265 2.6 5.2 0.00 1.53 0.34 91 1015.4
20260507061529 50 319 0.9 4.3 0.00 1.53 0.34 92 1015.4
20260507060028 49 286 0.0 2.6 0.00 1.53 0.34 94 1015.4
20260507054514 48 312 0.9 2.6 0.00 1.62 0.34 94 1015.3
20260507053015 48 355 0.9 4.3 0.00 1.62 0.34 94 1015.2
20260507051513 48 281 1.7 4.3 0.00 1.62 0.34 94 1015.1
20260507050027 48 298 0.0 1.7 0.00 1.62 0.34 94 1014.9
20260507044526 47 299 0.0 1.7 0.00 1.62 0.34 93 1014.9
20260507043010 47 302 0.0 3.5 0.00 1.62 0.34 93 1014.9
20260507041509 47 9 1.7 3.5 0.00 1.62 0.34 93 1014.9
20260507040010 47 38 0.9 2.6 0.00 1.63 0.34 93 1015.0
20260507034507 47 73 0.0 2.6 0.00 1.63 0.34 93 1014.9
20260507033009 47 77 0.0 1.7 0.01 1.63 0.34 93 1014.9
20260507031504 48 325 0.9 2.6 0.02 1.63 0.34 93 1014.9
20260507030002 48 94 0.0 3.5 0.03 1.65 0.34 94 1014.9
20260507024501 48 245 1.7 4.3 0.03 1.65 0.34 94 1014.6
20260507023100 48 312 0.9 2.6 0.03 1.64 0.33 94 1015.0
20260507021617 48 348 0.9 2.6 0.03 1.63 0.32 94 1014.8
20260507020107 48 99 0.9 3.5 0.02 1.62 0.31 94 1014.9
20260507014615 48 279 0.0 2.6 0.02 1.65 0.31 94 1014.6
20260507013058 48 63 0.0 2.6 0.02 1.64 0.30 94 1014.5
20260507011558 48 355 0.0 1.7 0.02 1.63 0.28 94 1014.6
20260507010109 48 313 0.9 1.7 0.05 1.63 0.28 94 1014.7
20260507004555 48 281 0.9 3.5 0.06 1.68 0.28 94 1014.6
20260507003055 48 75 0.9 7.0 0.09 1.67 0.28 94 1014.8
20260507001558 49 292 2.6 3.5 0.11 1.66 0.27 94 1014.8
20260507000053 49 161 1.7 7.0 0.10 1.63 0.24 94 1014.9
20260506234553 49 254 0.9 7.8 0.12 1.72 0.23 92 1014.7
20260506233053 49 296 1.7 3.5 0.11 1.68 0.19 93 1015.3
20260506231546 49 99 0.0 1.7 0.16 1.65 0.16 93 1015.1
20260506230044 49 155 0.0 0.9 0.14 1.63 0.14 93 1014.7
20260506224542 49 180 0.9 3.5 0.11 1.63 0.11 92 1014.5
20260506223041 49 317 1.7 4.3 0.08 1.60 0.08 91 1014.3
20260506221539 49 27 1.7 3.5 0.00 1.52 0.00 92 1014.5
20260506220039 49 82 2.6 4.3 0.00 1.52 0.00 91 1014.2
20260506214536 49 67 0.0 2.6 0.00 1.52 1.52 91 1013.9
20260506213036 49 320 0.9 3.5 0.00 1.52 1.52 90 1013.8
20260506211535 50 250 0.9 5.2 0.00 1.52 1.52 89 1013.9
20260506210034 50 273 4.3 10.4 0.03 1.52 1.52 88 1013.9
20260506204534 50 314 1.7 4.3 0.11 1.52 1.52 89 1014.0